Location: Unspecified
(0.0000°N, 0.0000°E)
Time: 17:18:18
(UTC+00:00)

Tiros 1 - Pass Details

Date: 26 May 2026
Orbit: 618 x 649 km, 48.4° (Epoch: 6 June)

Event Time Altitude Azimuth Distance (km) Brightness Sun altitude
Rises 17:03:45 0° 245° (WSW) 2,953 11.2 12.4°
Reaches altitude 10° 17:06:35 10° 261° (W) 2,041 10.9 11.8°
Maximum altitude 17:10:04 21° 309° (NW) 1,463 10.7 11.0°
Drops below altitude 10° 17:13:34 10° 358° (N) 2,032 10.1 10.1°
Sets 17:16:24 0° 14° (NNE) 2,935 10.6 9.5°
